This is the latest recevied weather packets stored in our database for station/object KC9NPJ-13. If no packets are shown the sender has not sent any weather packets the latest 1 day(s).
| Time | Temp. | Humidity | Pressure | Rain* | Wind** | Luminosity | Snow |
|---|---|---|---|---|---|---|---|
| 1778038438 | 8.33° C | 95% | 1011.3 hPa | 2.29 mm | 0.89 m/s, 7° | - | - |
| 1778038138 | 8.33° C | 95% | 1011.7 hPa | 2.79 mm | 1.34 m/s, 7° | - | - |
| 1778037838 | 8.33° C | 95% | 1011.6 hPa | 3.81 mm | 1.34 m/s, 20° | - | - |
| 1778037539 | 8.89° C | 96% | 1011.3 hPa | 5.59 mm | 0.89 m/s, 358° | - | - |
| 1778037239 | 8.89° C | 95% | 1011.3 hPa | 7.37 mm | 0.45 m/s, 356° | - | - |
| 1778036939 | 8.89° C | 95% | 1011.3 hPa | 7.62 mm | 0.45 m/s, 88° | - | - |
| 1778036639 | 8.89° C | 95% | 1011.4 hPa | 7.62 mm | 0.89 m/s, 38° | - | - |
| 1778036339 | 8.33° C | 95% | 1011.9 hPa | 7.62 mm | 0.89 m/s, 350° | - | - |
| 1778036039 | 8.33° C | 95% | 1012 hPa | 7.87 mm | 0.45 m/s, 335° | - | - |
| 1778035739 | 8.33° C | 95% | 1011.4 hPa | 8.13 mm | 0.45 m/s, 344° | - | - |
| 1778035439 | 8.33° C | 95% | 1011.2 hPa | 9.14 mm | 0.89 m/s, 14° | - | - |
| 1778035139 | 8.33° C | 95% | 1011.4 hPa | 9.65 mm | 0.89 m/s, 351° | - | - |
| 1778034839 | 8.33° C | 95% | 1011.3 hPa | 9.65 mm | 0.89 m/s, 350° | - | - |
| 1778034539 | 8.33° C | 95% | 1011 hPa | 10.16 mm | 1.34 m/s, 354° | - | - |
| 1778034239 | 8.33° C | 95% | 1011.3 hPa | 10.16 mm | 0.89 m/s, 350° | - | - |
| 1778033939 | 8.33° C | 95% | 1010.8 hPa | 9.4 mm | 0.89 m/s, 9° | - | - |
| 1778033639 | 8.33° C | 95% | 1010.1 hPa | 8.13 mm | 0.45 m/s, 333° | - | - |
| 1778033339 | 8.33° C | 95% | 1010.1 hPa | 8.13 mm | 0.45 m/s, 338° | - | - |
| 1778033039 | 8.33° C | 95% | 1009.8 hPa | 8.89 mm | 0.45 m/s, 78° | - | - |
| 1778032739 | 8.33° C | 95% | 1009.6 hPa | 9.4 mm | 0.45 m/s, 76° | - | - |
| 1778032439 | 8.33° C | 95% | 1009.8 hPa | 9.14 mm | 0 m/s | - | - |
| 1778032139 | 8.33° C | 95% | 1010.4 hPa | 8.89 mm | 0.89 m/s, 134° | - | - |
| 1778031839 | 8.33° C | 95% | 1010.5 hPa | 7.37 mm | 0.89 m/s, 31° | - | - |
| 1778031539 | 8.33° C | 95% | 1010.7 hPa | 6.6 mm | 0.89 m/s, 359° | - | - |
| 1778031239 | 8.33° C | 95% | 1010.4 hPa | 6.35 mm | 1.34 m/s, 331° | - | - |
* Rain latest hour (hover to see other rain measurements)
** Current wind speed in m/s (hover to see current wind gust speed)